Location: Dürabuch
(48.2640°N, 11.2185°E)
Time: 10:20:25
(UTC+00:00)

Cosmos 1295 Rocket - Pass Details

Date: 23 May 2024
Orbit: 943 x 993 km, 82.9° (Epoch: 15 June)

Event Time Altitude Azimuth Distance (km) Brightness Sun altitude
Exits shadow 02:32:34 - 192° (SSW) 3,352 6.8 -7.8°
Reaches altitude 10° 02:34:22 10° 193° (SSW) 2,676 6.3 -7.6°
Maximum altitude 02:40:29 78° 280° (W) 974 4.5 -6.8°
Drops below altitude 10° 02:46:36 10° 7° (N) 2,674 7.6 -6.1°
Sets 02:49:06 0° 9° (N) 3,622 8.3 -5.8°
